Regional Weather Roundup
Issued by NWS

Home | Current Version | Previous Version | Text Only | Print | Product List | Glossary Off
Versions: 1 2 3 4 5 6 7 8 9 10 11 12 13 14 15 16 17 18 19 20 21 22 23 24 25 26 27 28 29 30 31 32 33 34 35 36 37 38 39 40 41 42 43 44 45 46 47 48 49 50

000
ASUS45 KCYS 200410
RWRWY

WYOMING REGIONAL WEATHER ROUNDUP
NATIONAL WEATHER SERVICE CHEYENNE WY
1000 PM MDT TUE AUG 19 2014

NOTE:  "FAIR" INDICATES FEW OR NO CLOUDS BELOW 12,000 FEET
WITH NO SIGNIFICANT WEATHER AND/OR OBSTRUCTIONS TO VISIBILITY.

WYZ001-200500-
YELLOWSTONE NATIONAL PARK

CITY           SKY/WX    TMP DP  RH WIND       PRES   REMARKS
LK YELLOWSTONE   N/A     56  41  57 W12G20    30.13R
W YELLOWSTONE  NOT AVBL

$$
WYZ002>013-054>058-071-098>099-200500-
NORTHERN WYOMING

CITY           SKY/WX    TMP DP  RH WIND       PRES   REMARKS
JACKSON        CLOUDY    55  46  71 SW3       30.05R
CODY           CLOUDY    72  41  33 CALM      29.85S
GREYBULL       CLOUDY    77  42  28 N6        29.76S
WORLAND        CLOUDY    73  45  36 E3        29.77S
SHERIDAN       CLOUDY    71  46  40 SW5       29.78R
BUFFALO        CLOUDY    75  40  28 NW14      29.83S
GILLETTE       CLOUDY    77  38  24 SW13      29.77S
HULETT         FAIR      72  55  56 MISG      29.78
NEWCASTLE      FAIR      77  45  31 E9        29.79

$$
WYZ014>020-022>026-101>103-200500-
CENTRAL WYOMING

CITY           SKY/WX    TMP DP  RH WIND       PRES   REMARKS
BIG PINEY      MOCLDY    52  42  69 NW3       30.05S
PINEDALE       CLOUDY    54  45  71 W7        30.06S
DUBOIS         LGT RAIN  52  45  76 NW9       30.04R
LANDER         CLOUDY    68  42  38 VRB3      29.87S
RIVERTON       CLOUDY    68  40  35 NW7       29.88S
CASPER         MOCLDY    67  43  41 W7        29.90R
DOUGLAS        CLOUDY    71  44  37 NW6       29.87S

$$
WYZ021-027>030-104>119-200500-
SOUTHERN WYOMING

CITY           SKY/WX    TMP DP  RH WIND       PRES   REMARKS
EVANSTON       PTCLDY    54  50  86 SW5       30.05S
KEMMERER       PTCLDY    54  43  66 W3        30.05F
FORT BRIDGER     N/A     56  52  85 W5        30.07S
ROCK SPRINGS   MOCLDY    55  50  83 S8        30.03S
DIXON          LGT RAIN  62  52  71 CALM      30.05R
RAWLINS        CLOUDY    61  47  59 SW5       30.02S
SARATOGA       MOCLDY    59  46  63 MISG      30.06R
LARAMIE        CLOUDY    55  51  86 S9        30.08F
CHEYENNE       CLOUDY    64  50  60 W12       30.00R
TORRINGTON     CLOUDY    70  54  56 SE14      29.84R
PINE BLUFFS    FAIR      63  52  67 S3        29.92F

$$


USA.gov is the U.S. government's official web portal to all federal, state and local government web resources and services.